******** Week 295 almanac for PRN-02 ******** ID: 02 Health: 000 Eccentricity: 0.1645755768E-001 Time of Applicability(s): 61440.0000 Orbital Inclination(rad): 0.9664043011 Rate of Right Ascen(r/s): -0.8160339911E-008 SQRT(A) (m 1/2): 5153.630859 Right Ascen at Week(rad): -0.1444492708E+001 Argument of Perigee(rad): -1.088820762 Mean Anom(rad): -0.1662489130E+001 Af0(s): -0.3023147583E-003 Af1(s/s): 0.7275957614E-011 week: 295 ******** Week 295 almanac for PRN-03 ******** ID: 03 Health: 000 Eccentricity: 0.5650520325E-002 Time of Applicability(s): 61440.0000 Orbital Inclination(rad): 0.9875324896 Rate of Right Ascen(r/s): -0.7451738966E-008 SQRT(A) (m 1/2): 5153.583008 Right Ascen at Week(rad): -0.3061302841E+000 Argument of Perigee(rad): 1.155169176 Mean Anom(rad): 0.1139820380E+001 Af0(s): 0.6141662598E-003 Af1(s/s): 0.1091393642E-010 week: 295 ******** Week 295 almanac for PRN-04 ******** ID: 04 Health: 000 Eccentricity: 0.3188133240E-002 Time of Applicability(s): 61440.0000 Orbital Inclination(rad): 0.9662425141 Rate of Right Ascen(r/s): -0.7623174679E-008 SQRT(A) (m 1/2): 5153.633789 Right Ascen at Week(rad): 0.7700272714E+000 Argument of Perigee(rad): -2.992925348 Mean Anom(rad): -0.2109083892E+001 Af0(s): 0.4892349243E-003 Af1(s/s): 0.7275957614E-011 week: 295 ******** Week 295 almanac for PRN-05 ******** ID: 05 Health: 000 Eccentricity: 0.5653858185E-002 Time of Applicability(s): 61440.0000 Orbital Inclination(rad): 0.9743857949 Rate of Right Ascen(r/s): -0.7611745631E-008 SQRT(A) (m 1/2): 5153.670410 Right Ascen at Week(rad): -0.3598960111E+000 Argument of Perigee(rad): 1.334719829 Mean Anom(rad): -0.1475261456E+001 Af0(s): -0.1945495605E-003 Af1(s/s): 0.0000000000E+000 week: 295 ******** Week 295 almanac for PRN-06 ******** ID: 06 Health: 000 Eccentricity: 0.3329753876E-002 Time of Applicability(s): 61440.0000 Orbital Inclination(rad): 0.9891443679 Rate of Right Ascen(r/s): -0.7966046104E-008 SQRT(A) (m 1/2): 5153.694824 Right Ascen at Week(rad): -0.1341911862E+001 Argument of Perigee(rad): -0.758748618 Mean Anom(rad): 0.2572902608E+001 Af0(s): -0.1144409180E-004 Af1(s/s): -0.2910383046E-010 week: 295 ******** Week 295 almanac for PRN-07 ******** ID: 07 Health: 000 Eccentricity: 0.1887369156E-001 Time of Applicability(s): 61440.0000 Orbital Inclination(rad): 0.9498780550 Rate of Right Ascen(r/s): -0.7988904198E-008 SQRT(A) (m 1/2): 5153.518066 Right Ascen at Week(rad): 0.1782058363E+001 Argument of Perigee(rad): -2.091537489 Mean Anom(rad): 0.1721801680E+001 Af0(s): -0.1716613770E-004 Af1(s/s): 0.0000000000E+000 week: 295 ******** Week 295 almanac for PRN-08 ******** ID: 08 Health: 000 Eccentricity: 0.1006746292E-001 Time of Applicability(s): 61440.0000 Orbital Inclination(rad): 0.9504952425 Rate of Right Ascen(r/s): -0.7966046104E-008 SQRT(A) (m 1/2): 5153.670898 Right Ascen at Week(rad): -0.2444908839E+001 Argument of Perigee(rad): 0.382867149 Mean Anom(rad): -0.1792574520E+001 Af0(s): 0.4281997681E-003 Af1(s/s): 0.1091393642E-010 week: 295 ******** Week 295 almanac for PRN-09 ******** ID: 09 Health: 000 Eccentricity: 0.3172874451E-002 Time of Applicability(s): 61440.0000 Orbital Inclination(rad): 0.9600586540 Rate of Right Ascen(r/s): -0.7668890869E-008 SQRT(A) (m 1/2): 5153.502441 Right Ascen at Week(rad): 0.7090680134E+000 Argument of Perigee(rad): 2.026205487 Mean Anom(rad): -0.1253185155E+001 Af0(s): 0.4682540894E-003 Af1(s/s): 0.1818989404E-010 week: 295 ******** Week 295 almanac for PRN-10 ******** ID: 10 Health: 000 Eccentricity: 0.1003360748E-001 Time of Applicability(s): 61440.0000 Orbital Inclination(rad): 0.9871669707 Rate of Right Ascen(r/s): -0.7451738966E-008 SQRT(A) (m 1/2): 5153.648438 Right Ascen at Week(rad): -0.3086604536E+000 Argument of Perigee(rad): -2.352425451 Mean Anom(rad): 0.1629135534E+000 Af0(s): -0.2174377441E-003 Af1(s/s): -0.1455191523E-010 week: 295 ******** Week 295 almanac for PRN-11 ******** ID: 11 Health: 000 Eccentricity: 0.1761913300E-002 Time of Applicability(s): 61440.0000 Orbital Inclination(rad): 0.9658230662 Rate of Right Ascen(r/s): -0.8194627053E-008 SQRT(A) (m 1/2): 5153.528809 Right Ascen at Week(rad): -0.1313024263E+001 Argument of Perigee(rad): -2.383334640 Mean Anom(rad): -0.2696790282E+001 Af0(s): -0.7514953613E-003 Af1(s/s): 0.0000000000E+000 week: 295 ******** Week 295 almanac for PRN-12 ******** ID: 12 Health: 000 Eccentricity: 0.8881568909E-002 Time of Applicability(s): 61440.0000 Orbital Inclination(rad): 0.9616106111 Rate of Right Ascen(r/s): -0.7554600394E-008 SQRT(A) (m 1/2): 5153.742188 Right Ascen at Week(rad): 0.2898126384E+001 Argument of Perigee(rad): 1.458271196 Mean Anom(rad): 0.1002138863E+001 Af0(s): -0.5559921265E-003 Af1(s/s): -0.3637978807E-011 week: 295 ******** Week 295 almanac for PRN-13 ******** ID: 13 Health: 000 Eccentricity: 0.8779525757E-002 Time of Applicability(s): 61440.0000 Orbital Inclination(rad): 0.9724263741 Rate of Right Ascen(r/s): -0.7588887536E-008 SQRT(A) (m 1/2): 5153.634277 Right Ascen at Week(rad): 0.8777845532E+000 Argument of Perigee(rad): 0.974451184 Mean Anom(rad): -0.2100178490E+001 Af0(s): 0.6885528564E-003 Af1(s/s): 0.0000000000E+000 week: 295 ******** Week 295 almanac for PRN-14 ******** ID: 14 Health: 000 Eccentricity: 0.5046367645E-002 Time of Applicability(s): 61440.0000 Orbital Inclination(rad): 0.9449046016 Rate of Right Ascen(r/s): -0.7703178011E-008 SQRT(A) (m 1/2): 5153.650391 Right Ascen at Week(rad): 0.2850754990E+001 Argument of Perigee(rad): -2.860107928 Mean Anom(rad): 0.8380913023E+000 Af0(s): 0.5512237549E-003 Af1(s/s): 0.7275957614E-011 week: 295 ******** Week 295 almanac for PRN-15 ******** ID: 15 Health: 000 Eccentricity: 0.1613616943E-001 Time of Applicability(s): 61440.0000 Orbital Inclination(rad): 0.9373365636 Rate of Right Ascen(r/s): -0.7851755629E-008 SQRT(A) (m 1/2): 5153.675293 Right Ascen at Week(rad): 0.5763801733E+000 Argument of Perigee(rad): 1.381353819 Mean Anom(rad): -0.2808685491E+001 Af0(s): 0.2346038818E-003 Af1(s/s): 0.3637978807E-011 week: 295 ******** Week 295 almanac for PRN-16 ******** ID: 16 Health: 000 Eccentricity: 0.1431512833E-001 Time of Applicability(s): 61440.0000 Orbital Inclination(rad): 0.9609994157 Rate of Right Ascen(r/s): -0.7566029441E-008 SQRT(A) (m 1/2): 5153.612793 Right Ascen at Week(rad): 0.2915751433E+001 Argument of Perigee(rad): 0.856448513 Mean Anom(rad): -0.8009716637E+000 Af0(s): -0.1144409180E-003 Af1(s/s): 0.1091393642E-010 week: 295 ******** Week 295 almanac for PRN-17 ******** ID: 17 Health: 000 Eccentricity: 0.1349782944E-001 Time of Applicability(s): 61440.0000 Orbital Inclination(rad): 0.9662185456 Rate of Right Ascen(r/s): -0.7851755629E-008 SQRT(A) (m 1/2): 5153.541504 Right Ascen at Week(rad): -0.2347247892E+001 Argument of Perigee(rad): -1.262047864 Mean Anom(rad): -0.1846599032E+001 Af0(s): 0.5369186401E-003 Af1(s/s): -0.1455191523E-010 week: 295 ******** Week 295 almanac for PRN-18 ******** ID: 18 Health: 000 Eccentricity: 0.4799842834E-002 Time of Applicability(s): 61440.0000 Orbital Inclination(rad): 0.9740322603 Rate of Right Ascen(r/s): -0.8114623721E-008 SQRT(A) (m 1/2): 5153.672852 Right Ascen at Week(rad): -0.1340508959E+001 Argument of Perigee(rad): -2.941978535 Mean Anom(rad): 0.2451821864E+001 Af0(s): -0.6608963013E-003 Af1(s/s): 0.0000000000E+000 week: 295 ******** Week 295 almanac for PRN-19 ******** ID: 19 Health: 000 Eccentricity: 0.9959220886E-002 Time of Applicability(s): 61440.0000 Orbital Inclination(rad): 0.9653976262 Rate of Right Ascen(r/s): -0.7897471819E-008 SQRT(A) (m 1/2): 5153.549316 Right Ascen at Week(rad): -0.2303023106E+001 Argument of Perigee(rad): 2.687945924 Mean Anom(rad): 0.2124915428E-001 Af0(s): 0.5693435669E-003 Af1(s/s): 0.3637978807E-011 week: 295 ******** Week 295 almanac for PRN-20 ******** ID: 20 Health: 000 Eccentricity: 0.3861427307E-002 Time of Applicability(s): 61440.0000 Orbital Inclination(rad): 0.9566131894 Rate of Right Ascen(r/s): -0.7863184676E-008 SQRT(A) (m 1/2): 5153.603027 Right Ascen at Week(rad): -0.4919430697E+000 Argument of Perigee(rad): -2.430861454 Mean Anom(rad): 0.2867092484E+001 Af0(s): 0.3681182861E-003 Af1(s/s): 0.0000000000E+000 week: 295 ******** Week 295 almanac for PRN-21 ******** ID: 21 Health: 000 Eccentricity: 0.2565813065E-001 Time of Applicability(s): 61440.0000 Orbital Inclination(rad): 0.9606458810 Rate of Right Ascen(r/s): -0.8217485148E-008 SQRT(A) (m 1/2): 5153.579102 Right Ascen at Week(rad): -0.1452810509E+001 Argument of Perigee(rad): -0.485452863 Mean Anom(rad): -0.1980632850E+001 Af0(s): 0.9632110596E-004 Af1(s/s): 0.0000000000E+000 week: 295 ******** Week 295 almanac for PRN-22 ******** ID: 22 Health: 000 Eccentricity: 0.1369333267E-001 Time of Applicability(s): 61440.0000 Orbital Inclination(rad): 0.9603522675 Rate of Right Ascen(r/s): -0.7531742299E-008 SQRT(A) (m 1/2): 5153.636719 Right Ascen at Week(rad): 0.2919045972E+001 Argument of Perigee(rad): -1.083389286 Mean Anom(rad): -0.1322228522E+001 Af0(s): -0.8392333984E-004 Af1(s/s): -0.3637978807E-011 week: 295 ******** Week 295 almanac for PRN-23 ******** ID: 23 Health: 000 Eccentricity: 0.4948139191E-002 Time of Applicability(s): 61440.0000 Orbital Inclination(rad): 0.9822714149 Rate of Right Ascen(r/s): -0.7508884204E-008 SQRT(A) (m 1/2): 5153.587891 Right Ascen at Week(rad): -0.3385446164E+000 Argument of Perigee(rad): -2.891181151 Mean Anom(rad): 0.1331650370E+001 Af0(s): 0.3747940063E-003 Af1(s/s): 0.7275957614E-011 week: 295 ******** Week 295 almanac for PRN-24 ******** ID: 24 Health: 000 Eccentricity: 0.1635551453E-001 Time of Applicability(s): 61440.0000 Orbital Inclination(rad): 0.9336094696 Rate of Right Ascen(r/s): -0.8160339911E-008 SQRT(A) (m 1/2): 5153.620117 Right Ascen at Week(rad): 0.1681672129E+001 Argument of Perigee(rad): 1.035795810 Mean Anom(rad): 0.2594260743E+001 Af0(s): -0.4768371582E-003 Af1(s/s): 0.3637978807E-011 week: 295 ******** Week 295 almanac for PRN-25 ******** ID: 25 Health: 000 Eccentricity: 0.1215028763E-001 Time of Applicability(s): 61440.0000 Orbital Inclination(rad): 0.9496203941 Rate of Right Ascen(r/s): -0.7657461821E-008 SQRT(A) (m 1/2): 5153.652344 Right Ascen at Week(rad): 0.2809491805E+001 Argument of Perigee(rad): 1.099802806 Mean Anom(rad): 0.8033924771E+000 Af0(s): 0.4987716675E-003 Af1(s/s): 0.0000000000E+000 week: 295 ******** Week 295 almanac for PRN-26 ******** ID: 26 Health: 000 Eccentricity: 0.9658813477E-002 Time of Applicability(s): 61440.0000 Orbital Inclination(rad): 0.9303377762 Rate of Right Ascen(r/s): -0.7886042771E-008 SQRT(A) (m 1/2): 5153.682129 Right Ascen at Week(rad): 0.2743535500E+001 Argument of Perigee(rad): 0.586844274 Mean Anom(rad): 0.3690579510E-001 Af0(s): 0.6675720215E-005 Af1(s/s): -0.1455191523E-010 week: 295 ******** Week 295 almanac for PRN-27 ******** ID: 27 Health: 000 Eccentricity: 0.1292467117E-001 Time of Applicability(s): 61440.0000 Orbital Inclination(rad): 0.9595253560 Rate of Right Ascen(r/s): -0.7897471819E-008 SQRT(A) (m 1/2): 5153.640625 Right Ascen at Week(rad): -0.2416816317E+001 Argument of Perigee(rad): 0.800649588 Mean Anom(rad): -0.1723925510E+001 Af0(s): -0.3433227539E-004 Af1(s/s): 0.0000000000E+000 week: 295 ******** Week 295 almanac for PRN-28 ******** ID: 28 Health: 000 Eccentricity: 0.4816055298E-003 Time of Applicability(s): 61440.0000 Orbital Inclination(rad): 0.9609275103 Rate of Right Ascen(r/s): -0.7851755629E-008 SQRT(A) (m 1/2): 5153.703613 Right Ascen at Week(rad): 0.1751121835E+001 Argument of Perigee(rad): 1.418743103 Mean Anom(rad): 0.4989070279E+000 Af0(s): -0.4959106445E-003 Af1(s/s): -0.1091393642E-010 week: 295 ******** Week 295 almanac for PRN-29 ******** ID: 29 Health: 000 Eccentricity: 0.2861976624E-002 Time of Applicability(s): 61440.0000 Orbital Inclination(rad): 0.9686992802 Rate of Right Ascen(r/s): -0.7874613724E-008 SQRT(A) (m 1/2): 5153.695801 Right Ascen at Week(rad): -0.2331746297E+001 Argument of Perigee(rad): 2.664618255 Mean Anom(rad): -0.1886216258E+001 Af0(s): -0.5598068237E-003 Af1(s/s): 0.3637978807E-011 week: 295 ******** Week 295 almanac for PRN-30 ******** ID: 30 Health: 000 Eccentricity: 0.7168769836E-002 Time of Applicability(s): 61440.0000 Orbital Inclination(rad): 0.9350415845 Rate of Right Ascen(r/s): -0.8137481816E-008 SQRT(A) (m 1/2): 5153.698730 Right Ascen at Week(rad): 0.1779858883E+001 Argument of Perigee(rad): -2.461120873 Mean Anom(rad): 0.1552570942E+001 Af0(s): -0.2708435059E-003 Af1(s/s): 0.7275957614E-011 week: 295 ******** Week 295 almanac for PRN-31 ******** ID: 31 Health: 000 Eccentricity: 0.1072931290E-001 Time of Applicability(s): 61440.0000 Orbital Inclination(rad): 0.9538088807 Rate of Right Ascen(r/s): -0.7920329914E-008 SQRT(A) (m 1/2): 5153.530762 Right Ascen at Week(rad): 0.1804372615E+001 Argument of Perigee(rad): 0.779450243 Mean Anom(rad): 0.6480596950E+000 Af0(s): -0.2212524414E-003 Af1(s/s): 0.0000000000E+000 week: 295 ******** Week 295 almanac for PRN-32 ******** ID: 32 Health: 000 Eccentricity: 0.8099079132E-002 Time of Applicability(s): 61440.0000 Orbital Inclination(rad): 0.9633543159 Rate of Right Ascen(r/s): -0.7588887536E-008 SQRT(A) (m 1/2): 5153.706543 Right Ascen at Week(rad): 0.7244291682E+000 Argument of Perigee(rad): -2.127587161 Mean Anom(rad): -0.1110441427E+001 Af0(s): -0.5655288696E-003 Af1(s/s): 0.7275957614E-011 week: 295